Back to catalog

COSMOS 2442

GLONASS

AliveNavigationMEO
NORAD 33378·PAYLOAD·🇷🇺 Russia

Launched Sep 25, 2008 from Baikonur Cosmodrome

Loading…

Next Passes (next 24 hours)

TLE

FreshSource: Space-Track

Epoch: Sep 12, 2026, 16:42 UTC

1 33378U 08046A   26255.69632506 -.00000046  00000-0  00000-0 0  9990
2 33378  65.4079 311.8999 0017816 306.0837 211.0028  2.13109403139816

Track COSMOS 2442 in real time with AllMySat

Download on the App Store